Date String (YYYY-MM-DD hh:mm:ss) UTC,Instrument flags,Ambient pressure (hPa),Sample flow (lpm),Bypass flow (lpm),Sample temperature (°C),Ambient temperature (°C),ASC tube jacket temperature (°C),LED temperature (°C),Box temperature (°C),Sample RH (%),Span deviation,Mass concentration (μg/m³),Mass concentration (μg/m³),Mass concentration (μg/m³)
DateTimeUTC,F1_M11,P_M11,Q1_M11,Q2_M11,T1_M11,T2_M11,T3_M11,T4_M11,T5_M11,U1_M11,ZSPAN_M11,X0_M11,X2_M11,X1_M11
2022-10-01 16:00:00,,0827.7,5.00,0.00,30.5,27.2,00.0,39.2,32.1,21.8,0000.0,0005.63,0001.72,0001.21
2022-10-01 16:01:00,,0827.8,5.00,0.00,30.4,27.5,00.0,39.1,32.0,22.0,0000.0,0005.55,0001.69,0001.20
2022-10-01 16:02:00,,0827.8,4.99,0.00,30.3,27.9,00.0,39.1,32.0,22.8,0000.0,0005.54,0001.69,0001.21
2022-10-01 16:03:00,,0827.8,5.01,0.00,30.3,28.1,00.0,39.1,32.0,22.1,0000.0,0006.02,0001.66,0001.22
2022-10-01 16:04:00,,0827.8,5.00,0.00,30.3,28.3,00.0,39.1,32.0,22.1,0000.0,0006.05,0001.64,0001.22
2022-10-01 16:05:00,,0827.8,5.00,0.00,30.3,28.5,00.0,39.1,32.1,23.6,0000.0,0005.99,0001.65,0001.23
2022-10-01 16:06:00,,0827.9,5.00,0.00,30.3,28.6,00.0,39.0,32.1,24.1,0000.0,0004.28,0001.66,0001.25
2022-10-01 16:07:00,,0827.9,5.01,0.00,30.3,28.7,00.0,39.0,32.1,23.9,0000.0,0003.84,0001.69,0001.27
2022-10-01 16:08:00,,0827.9,4.98,0.00,30.3,28.9,00.0,39.0,32.1,23.5,0000.0,0003.59,0001.66,0001.30
2022-10-01 16:09:00,,0827.9,5.01,0.00,30.3,28.9,00.0,39.0,32.1,23.7,0000.0,0003.74,0001.68,0001.33
2022-10-01 16:10:00,,0827.9,5.00,0.00,30.3,29.0,00.0,39.0,32.2,23.9,0000.0,0003.91,0001.71,0001.36
2022-10-01 16:11:00,,0827.9,5.00,0.00,30.4,29.1,00.0,39.1,32.2,24.1,0000.0,0003.84,0001.73,0001.40
2022-10-01 16:12:00,,0827.9,5.00,0.00,30.4,29.1,00.0,39.1,32.2,24.1,0000.0,0004.58,0001.80,0001.43
2022-10-01 16:13:00,,0827.9,5.00,0.00,30.4,29.2,00.0,39.1,32.2,23.8,0000.0,0004.90,0001.83,0001.45
2022-10-01 16:14:00,,0827.9,5.00,0.00,30.4,29.2,00.0,39.1,32.2,23.6,0000.0,0004.35,0001.87,0001.49
2022-10-01 16:15:00,,0827.8,5.00,0.00,30.4,29.3,00.0,39.1,32.3,23.5,0000.0,0004.37,0001.96,0001.53
2022-10-01 16:16:00,,0827.8,5.01,0.00,30.4,29.3,00.0,39.1,32.3,23.4,0000.0,0004.33,0002.00,0001.57
2022-10-01 16:17:00,,0827.8,4.99,0.00,30.5,29.3,00.0,39.1,32.3,23.6,0000.0,0004.37,0002.04,0001.60
2022-10-01 16:18:00,,0827.8,5.02,0.00,30.5,29.4,00.0,39.1,32.3,23.5,0000.0,0004.37,0002.04,0001.63
2022-10-01 16:19:00,,0827.8,4.99,0.00,30.5,29.4,00.0,39.2,32.4,23.4,0000.0,0004.41,0002.07,0001.66
2022-10-01 16:20:00,,0827.9,5.00,0.00,30.5,29.3,00.0,39.2,32.4,24.0,0000.0,0004.32,0002.09,0001.68
2022-10-01 16:21:00,,0827.8,5.01,0.00,30.6,28.3,00.0,39.2,32.4,23.9,0000.0,0004.37,0002.08,0001.71
2022-10-01 16:22:00,,0827.9,5.00,0.00,30.5,27.0,00.0,39.1,32.2,24.3,0000.0,0004.43,0002.11,0001.73
2022-10-01 16:23:00,,0827.9,5.00,0.00,30.4,26.9,00.0,39.1,32.1,24.5,0000.0,0003.88,0002.14,0001.78
2022-10-01 16:24:00,,0827.9,4.99,0.00,30.4,27.1,00.0,39.0,32.0,24.7,0000.0,0004.36,0002.18,0001.82
2022-10-01 16:25:00,,0827.9,4.99,0.00,30.3,27.4,00.0,39.0,31.9,25.1,0000.0,0004.89,0002.22,0001.85
2022-10-01 16:26:00,,0827.9,5.01,0.00,30.2,27.7,00.0,39.0,31.9,25.1,0000.0,0004.76,0002.24,0001.90
2022-10-01 16:27:00,,0827.9,5.01,0.00,30.2,28.0,00.0,39.0,31.9,25.1,0000.0,0004.70,0002.25,0001.94
2022-10-01 16:28:00,,0827.9,5.01,0.00,30.2,28.2,00.0,38.9,31.9,25.4,0000.0,0005.35,0002.31,0001.96
2022-10-01 16:29:00,,0827.9,5.00,0.00,30.2,28.4,00.0,38.9,32.0,25.7,0000.0,0005.75,0002.35,0001.99
2022-10-01 16:30:00,,0827.9,5.00,0.00,30.2,28.6,00.0,38.9,32.0,25.3,0000.0,0005.84,0002.40,0002.01
2022-10-01 16:31:00,,0827.9,5.01,0.00,30.2,28.7,00.0,38.9,32.0,25.8,0000.0,0005.76,0002.40,0002.03
2022-10-01 16:32:00,,0827.8,5.00,0.00,30.2,28.8,00.0,38.9,32.0,25.2,0000.0,0005.40,0002.41,0002.04
2022-10-01 16:33:00,,0827.8,5.00,0.00,30.2,28.9,00.0,38.9,32.1,24.9,0000.0,0005.37,0002.42,0002.05
2022-10-01 16:34:00,,0827.9,5.00,0.00,30.2,29.0,00.0,38.9,32.1,24.9,0000.0,0005.35,0002.42,0002.05
2022-10-01 16:35:00,,0827.8,5.00,0.00,30.3,29.1,00.0,38.9,32.1,24.4,0000.0,0004.69,0002.41,0002.04
2022-10-01 16:36:00,,0827.8,5.01,0.00,30.3,29.1,00.0,38.9,32.1,24.4,0000.0,0004.08,0002.37,0002.03
2022-10-01 16:37:00,,0827.9,4.99,0.00,30.3,29.2,00.0,39.0,32.2,24.2,0000.0,0004.07,0002.35,0002.00
2022-10-01 16:38:00,,0827.9,5.01,0.00,30.3,29.2,00.0,39.0,32.2,24.7,0000.0,0004.09,0002.36,0001.97
2022-10-01 16:39:00,,0827.9,5.00,0.00,30.4,29.3,00.0,39.0,32.2,25.4,0000.0,0003.50,0002.32,0001.96
2022-10-01 16:40:00,,0827.9,5.01,0.00,30.4,29.0,00.0,39.0,32.3,24.4,0000.0,0003.23,0002.31,0001.94
2022-10-01 16:41:00,,0827.9,5.00,0.00,30.4,27.8,00.0,39.0,32.2,23.9,0000.0,0003.15,0002.26,0001.91
2022-10-01 16:42:00,,0827.9,5.00,0.00,30.3,26.9,00.0,39.0,32.0,23.7,0000.0,0003.26,0002.27,0001.89
2022-10-01 16:43:00,,0827.9,4.99,0.00,30.3,26.8,00.0,38.9,32.0,23.8,0000.0,0003.33,0002.28,0001.88
2022-10-01 16:44:00,,0827.9,5.00,0.00,30.2,27.1,00.0,38.9,31.8,24.6,0000.0,0003.34,0002.26,0001.87
2022-10-01 16:45:00,,0827.9,5.00,0.00,30.1,27.5,00.0,38.9,31.8,25.2,0000.0,0003.35,0002.25,0001.87
2022-10-01 16:46:00,,0827.8,5.00,0.00,30.1,27.8,00.0,38.8,31.8,25.3,0000.0,0003.37,0002.24,0001.86
2022-10-01 16:47:00,,0827.8,5.00,0.00,30.1,28.0,00.0,38.8,31.8,25.2,0000.0,0003.32,0002.23,0001.86
2022-10-01 16:48:00,,0827.8,5.01,0.00,30.1,28.2,00.0,38.8,31.9,25.0,0000.0,0003.30,0002.22,0001.86
2022-10-01 16:49:00,,0827.8,4.98,0.00,30.1,28.4,00.0,38.8,31.9,24.6,0000.0,0003.26,0002.19,0001.87
2022-10-01 16:50:00,,0827.9,5.02,0.00,30.1,28.6,00.0,38.8,31.9,24.5,0000.0,0003.29,0002.21,0001.88
2022-10-01 16:51:00,,0827.8,4.99,0.00,30.1,28.7,00.0,38.8,31.9,24.3,0000.0,0003.14,0002.19,0001.90
2022-10-01 16:52:00,,0827.8,5.01,0.00,30.1,28.8,00.0,38.8,32.0,24.1,0000.0,0003.15,0002.21,0001.91
2022-10-01 16:53:00,,0827.8,4.98,0.00,30.1,28.9,00.0,38.8,32.0,24.3,0000.0,0003.13,0002.23,0001.93
2022-10-01 16:54:00,,0827.8,5.01,0.00,30.1,28.9,00.0,38.8,32.0,24.0,0000.0,0003.03,0002.21,0001.95
2022-10-01 16:55:00,,0827.8,4.99,0.00,30.2,29.0,00.0,38.8,32.1,24.3,0000.0,0003.22,0002.22,0001.95
2022-10-01 16:56:00,,0827.8,5.01,0.00,30.2,29.1,00.0,38.8,32.1,24.6,0000.0,0003.23,0002.22,0001.95
2022-10-01 16:57:00,,0827.8,5.00,0.00,30.2,29.1,00.0,38.9,32.1,24.4,0000.0,0004.24,0002.18,0001.93
2022-10-01 16:58:00,,0827.9,5.00,0.00,30.3,29.2,00.0,38.9,32.1,24.7,0000.0,0004.30,0002.18,0001.92
2022-10-01 16:59:00,,0827.9,5.01,0.00,30.3,29.1,00.0,38.9,32.2,24.0,0000.0,0004.31,0002.17,0001.91
